Zurück zum Katalog

CZ-7A R/B

LostGTO
NORAD 100173·ROCKET BODY·🇨🇳 China

Gestartet Jul 29, 2026 von Wenchang Space Launch Site

Loading…

TLE

VeraltetSource: Space-Track

Epoche: Aug 9, 2026, 21:55 UTC

1 A0173U 26172B   26221.91326750  .00147862  94668-6  24260-2 0  9998
2 A0173  15.4520 140.5842 7211714 188.0097 146.3723  2.42008571   296

Verfolge CZ-7A R/B in Echtzeit mit AllMySat

Download on the App Store